Time,TemperatureF,DewpointF,PressureIn,WindDirection,WindDirectionDegrees,WindSpeedMPH,WindSpeedGustMPH,Humidity,HourlyPrecipIn,Conditions,Clouds,dailyrainin,SoftwareType,DateUTC
2013-08-06 00:10:00,67.1,65.0,29.86,ESE,118,0.0,0.0,91,0.00,,,0.14,weatherlink.com 1.10,2013-08-06 05:10:00,
2013-08-06 00:25:00,67.1,65.0,29.86,ESE,118,0.0,2.0,91,0.00,,,0.14,weatherlink.com 1.10,2013-08-06 05:25:00,
2013-08-06 00:40:00,67.0,65.0,29.86,ESE,118,0.0,1.0,92,0.00,,,0.14,weatherlink.com 1.10,2013-08-06 05:40:00,
2013-08-06 00:55:00,66.8,65.0,29.86,ESE,118,0.0,1.0,92,0.00,,,0.14,weatherlink.com 1.10,2013-08-06 05:55:00,
2013-08-06 01:10:00,66.7,65.0,29.85,ESE,118,0.0,1.0,93,0.00,,,0.14,weatherlink.com 1.10,2013-08-06 06:10:00,
2013-08-06 01:25:00,66.5,65.0,29.85,ESE,118,0.0,1.0,93,0.00,,,0.14,weatherlink.com 1.10,2013-08-06 06:25:00,
2013-08-06 01:40:00,66.3,64.0,29.86,ESE,118,0.0,0.0,93,0.00,,,0.14,weatherlink.com 1.10,2013-08-06 06:40:00,
2013-08-06 01:55:00,66.1,64.0,29.86,ESE,118,0.0,1.0,94,0.00,,,0.14,weatherlink.com 1.10,2013-08-06 06:55:00,
2013-08-06 02:10:00,66.2,65.0,29.86,SSE,162,0.0,1.0,95,0.00,,,0.14,weatherlink.com 1.10,2013-08-06 07:10:00,
2013-08-06 02:25:00,66.3,65.0,29.85,SSE,162,0.0,1.0,95,0.00,,,0.14,weatherlink.com 1.10,2013-08-06 07:25:00,
2013-08-06 02:40:00,66.4,65.0,29.86,SSE,162,0.0,0.0,94,0.00,,,0.14,weatherlink.com 1.10,2013-08-06 07:40:00,
2013-08-06 02:56:00,66.5,65.0,29.84,SE,144,1.0,2.0,95,0.00,,,0.00,weatherlink.com 1.10,2013-08-06 07:56:00,
2013-08-06 03:11:00,66.5,65.0,29.84,SE,144,0.0,1.0,95,0.00,,,0.00,weatherlink.com 1.10,2013-08-06 08:11:00,
2013-08-06 03:26:00,66.6,65.0,29.84,SE,144,0.0,2.0,95,0.00,,,0.00,weatherlink.com 1.10,2013-08-06 08:26:00,
2013-08-06 03:41:00,66.7,66.0,29.83,SE,144,0.0,1.0,96,0.00,,,0.00,weatherlink.com 1.10,2013-08-06 08:41:00,
2013-08-06 03:56:00,66.8,66.0,29.84,NNE,17,1.0,3.0,96,0.02,,,0.02,weatherlink.com 1.10,2013-08-06 08:56:00,
2013-08-06 04:11:00,66.8,66.0,29.83,NW,324,1.0,2.0,96,0.09,,,0.09,weatherlink.com 1.10,2013-08-06 09:11:00,
2013-08-06 04:26:00,67.0,66.0,29.84,NW,324,0.0,2.0,97,0.16,,,0.16,weatherlink.com 1.10,2013-08-06 09:26:00,
2013-08-06 04:41:00,66.9,66.0,29.83,NW,322,1.0,2.0,97,0.18,,,0.18,weatherlink.com 1.10,2013-08-06 09:41:00,
2013-08-06 04:56:00,66.8,66.0,29.83,NW,322,0.0,0.0,97,0.16,,,0.18,weatherlink.com 1.10,2013-08-06 09:56:00,
2013-08-06 05:11:00,66.8,66.0,29.83,NW,322,0.0,1.0,97,0.08,,,0.18,weatherlink.com 1.10,2013-08-06 10:11:00,
2013-08-06 05:26:00,66.6,66.0,29.83,NW,322,0.0,0.0,97,0.02,,,0.18,weatherlink.com 1.10,2013-08-06 10:26:00,
2013-08-06 05:41:00,66.6,66.0,29.83,NW,323,0.0,1.0,97,0.00,,,0.18,weatherlink.com 1.10,2013-08-06 10:41:00,
2013-08-06 05:56:00,66.7,66.0,29.83,NW,323,0.0,0.0,98,0.00,,,0.18,weatherlink.com 1.10,2013-08-06 10:56:00,
2013-08-06 06:11:00,66.8,66.0,29.85,NW,322,0.0,0.0,98,0.00,,,0.18,weatherlink.com 1.10,2013-08-06 11:11:00,
2013-08-06 06:26:00,67.2,67.0,29.85,NW,322,0.0,1.0,98,0.00,,,0.18,weatherlink.com 1.10,2013-08-06 11:26:00,
2013-08-06 06:41:00,67.4,67.0,29.84,NW,323,0.0,0.0,98,0.00,,,0.18,weatherlink.com 1.10,2013-08-06 11:41:00,
2013-08-06 06:56:00,67.7,67.0,29.84,NW,326,0.0,1.0,98,0.00,,,0.18,weatherlink.com 1.10,2013-08-06 11:56:00,
2013-08-06 07:11:00,67.8,67.0,29.85,NW,306,0.0,1.0,98,0.00,,,0.18,weatherlink.com 1.10,2013-08-06 12:11:00,
2013-08-06 07:26:00,68.1,68.0,29.86,WSW,243,0.0,2.0,98,0.00,,,0.18,weatherlink.com 1.10,2013-08-06 12:26:00,
2013-08-06 07:41:00,68.4,68.0,29.86,SSW,205,0.0,2.0,98,0.00,,,0.18,weatherlink.com 1.10,2013-08-06 12:41:00,
2013-08-06 07:56:00,68.5,68.0,29.86,West,277,0.0,2.0,98,0.00,,,0.18,weatherlink.com 1.10,2013-08-06 12:56:00,
2013-08-06 08:11:00,68.6,68.0,29.86,SSW,203,0.0,3.0,98,0.00,,,0.18,weatherlink.com 1.10,2013-08-06 13:11:00,
2013-08-06 08:26:00,68.7,68.0,29.87,South,180,0.0,2.0,98,0.00,,,0.18,weatherlink.com 1.10,2013-08-06 13:26:00,
2013-08-06 08:41:00,68.6,68.0,29.87,South,175,0.0,2.0,98,0.00,,,0.18,weatherlink.com 1.10,2013-08-06 13:41:00,
2013-08-06 08:56:00,68.8,68.0,29.87,WSW,253,2.0,2.0,98,0.00,,,0.18,weatherlink.com 1.10,2013-08-06 13:56:00,
2013-08-06 09:11:00,68.6,68.0,29.87,SE,142,0.0,2.0,98,0.00,,,0.18,weatherlink.com 1.10,2013-08-06 14:11:00,
2013-08-06 09:26:00,68.7,68.0,29.88,West,268,3.0,4.0,98,0.00,,,0.18,weatherlink.com 1.10,2013-08-06 14:26:00,
2013-08-06 09:41:00,68.9,68.0,29.88,SW,217,3.0,3.0,98,0.00,,,0.18,weatherlink.com 1.10,2013-08-06 14:41:00,
2013-08-06 09:56:00,69.0,69.0,29.88,West,279,0.0,5.0,98,0.00,,,0.18,weatherlink.com 1.10,2013-08-06 14:56:00,
2013-08-06 10:11:00,69.2,69.0,29.88,South,190,0.0,5.0,98,0.00,,,0.18,weatherlink.com 1.10,2013-08-06 15:11:00,
2013-08-06 10:26:00,69.5,69.0,29.88,SSW,205,1.0,5.0,98,0.00,,,0.18,weatherlink.com 1.10,2013-08-06 15:26:00,
2013-08-06 10:41:00,69.7,69.0,29.88,West,278,2.0,5.0,98,0.00,,,0.18,weatherlink.com 1.10,2013-08-06 15:41:00,
2013-08-06 10:56:00,70.4,70.0,29.88,South,190,3.0,3.0,98,0.00,,,0.18,weatherlink.com 1.10,2013-08-06 15:56:00,
2013-08-06 11:11:00,70.6,70.0,29.88,South,169,3.0,5.0,97,0.00,,,0.18,weatherlink.com 1.10,2013-08-06 16:11:00,
2013-08-06 11:26:00,70.7,70.0,29.88,WNW,298,1.0,5.0,97,0.00,,,0.18,weatherlink.com 1.10,2013-08-06 16:26:00,
2013-08-06 11:41:00,70.8,70.0,29.88,SW,226,1.0,4.0,96,0.00,,,0.18,weatherlink.com 1.10,2013-08-06 16:41:00,
2013-08-06 11:56:00,71.0,70.0,29.88,WNW,299,0.0,3.0,96,0.00,,,0.18,weatherlink.com 1.10,2013-08-06 16:56:00,
2013-08-06 12:11:00,71.6,70.0,29.88,WNW,291,0.0,4.0,96,0.00,,,0.18,weatherlink.com 1.10,2013-08-06 17:11:00,
2013-08-06 12:26:00,72.3,71.0,29.87,WSW,253,0.0,5.0,95,0.00,,,0.18,weatherlink.com 1.10,2013-08-06 17:26:00,
2013-08-06 12:41:00,73.1,71.0,29.87,SSW,200,1.0,3.0,94,0.00,,,0.18,weatherlink.com 1.10,2013-08-06 17:41:00,
2013-08-06 12:56:00,73.8,72.0,29.86,SSW,213,0.0,4.0,94,0.00,,,0.18,weatherlink.com 1.10,2013-08-06 17:56:00,
2013-08-06 13:11:00,74.9,73.0,29.86,West,269,2.0,6.0,93,0.00,,,0.18,weatherlink.com 1.10,2013-08-06 18:11:00,
2013-08-06 13:26:00,76.6,73.0,29.84,WNW,284,1.0,6.0,88,0.00,,,0.18,weatherlink.com 1.10,2013-08-06 18:26:00,
2013-08-06 13:42:00,77.1,73.0,29.84,NW,304,0.0,5.0,88,0.00,,,0.18,weatherlink.com 1.10,2013-08-06 18:42:00,
2013-08-06 13:57:00,77.9,73.0,29.83,South,188,2.0,5.0,84,0.00,,,0.18,weatherlink.com 1.10,2013-08-06 18:57:00,
2013-08-06 14:12:00,78.6,73.0,29.82,SSW,204,1.0,5.0,83,0.00,,,0.18,weatherlink.com 1.10,2013-08-06 19:12:00,
2013-08-06 14:27:00,79.4,74.0,29.82,South,187,5.0,5.0,82,0.00,,,0.18,weatherlink.com 1.10,2013-08-06 19:27:00,
2013-08-06 14:42:00,80.1,74.0,29.82,WSW,255,2.0,6.0,82,0.00,,,0.18,weatherlink.com 1.10,2013-08-06 19:42:00,
2013-08-06 14:57:00,80.0,73.0,29.80,West,278,2.0,4.0,80,0.00,,,0.18,weatherlink.com 1.10,2013-08-06 19:57:00,
2013-08-06 15:11:00,80.2,74.0,29.81,West,271,0.0,4.0,80,0.00,,,0.18,weatherlink.com 1.10,2013-08-06 20:11:00,
2013-08-06 15:27:00,80.7,74.0,29.81,WNW,283,4.0,5.0,79,0.00,,,0.18,weatherlink.com 1.10,2013-08-06 20:27:00,
2013-08-06 15:42:00,81.6,74.0,29.80,NW,324,2.0,4.0,77,0.00,,,0.18,weatherlink.com 1.10,2013-08-06 20:42:00,
2013-08-06 15:57:00,81.9,73.0,29.80,SSW,205,0.0,4.0,75,0.00,,,0.18,weatherlink.com 1.10,2013-08-06 20:57:00,
2013-08-06 16:12:00,81.8,74.0,29.81,SSW,194,0.0,1.0,78,0.00,,,0.18,weatherlink.com 1.10,2013-08-06 21:12:00,
2013-08-06 16:27:00,82.0,74.0,29.80,West,281,0.0,8.0,76,0.00,,,0.18,weatherlink.com 1.10,2013-08-06 21:27:00,
2013-08-06 16:42:00,82.2,74.0,29.80,South,181,0.0,6.0,77,0.00,,,0.18,weatherlink.com 1.10,2013-08-06 21:42:00,
2013-08-06 16:57:00,82.1,74.0,29.80,SSE,160,0.0,4.0,75,0.00,,,0.18,weatherlink.com 1.10,2013-08-06 21:57:00,
2013-08-06 17:12:00,81.2,73.0,29.80,WSW,239,0.0,2.0,77,0.00,,,0.18,weatherlink.com 1.10,2013-08-06 22:12:00,
2013-08-06 17:27:00,81.5,74.0,29.80,WSW,246,1.0,2.0,78,0.00,,,0.18,weatherlink.com 1.10,2013-08-06 22:27:00,
2013-08-06 17:42:00,81.3,73.0,29.81,WNW,286,1.0,4.0,77,0.00,,,0.18,weatherlink.com 1.10,2013-08-06 22:42:00,
2013-08-06 17:57:00,81.3,74.0,29.80,SSW,205,0.0,3.0,79,0.00,,,0.18,weatherlink.com 1.10,2013-08-06 22:57:00,
2013-08-06 18:12:00,81.3,75.0,29.80,South,188,0.0,2.0,80,0.00,,,0.18,weatherlink.com 1.10,2013-08-06 23:12:00,
2013-08-06 18:27:00,81.3,75.0,29.81,SW,230,1.0,3.0,80,0.00,,,0.18,weatherlink.com 1.10,2013-08-06 23:27:00,
2013-08-06 18:42:00,80.6,74.0,29.81,South,170,0.0,2.0,81,0.00,,,0.18,weatherlink.com 1.10,2013-08-06 23:42:00,
2013-08-06 18:57:00,80.2,74.0,29.82,WSW,255,1.0,2.0,81,0.00,,,0.18,weatherlink.com 1.10,2013-08-06 23:57:00,
2013-08-06 19:12:00,79.7,74.0,29.82,SSW,193,0.0,2.0,83,0.00,,,0.18,weatherlink.com 1.10,2013-08-07 00:12:00,
2013-08-06 19:27:00,78.9,74.0,29.81,SSE,152,0.0,2.0,84,0.00,,,0.18,weatherlink.com 1.10,2013-08-07 00:27:00,
2013-08-06 19:42:00,78.0,74.0,29.80,SSE,147,0.0,3.0,86,0.00,,,0.18,weatherlink.com 1.10,2013-08-07 00:42:00,
2013-08-06 19:57:00,77.2,73.0,29.81,SSE,147,0.0,1.0,87,0.00,,,0.18,weatherlink.com 1.10,2013-08-07 00:57:00,
2013-08-06 20:12:00,76.5,73.0,29.80,SSE,147,0.0,1.0,89,0.00,,,0.18,weatherlink.com 1.10,2013-08-07 01:12:00,
2013-08-06 20:27:00,75.9,73.0,29.81,SSE,147,0.0,0.0,89,0.00,,,0.18,weatherlink.com 1.10,2013-08-07 01:27:00,
2013-08-06 20:42:00,75.1,72.0,29.81,SSE,147,0.0,0.0,91,0.00,,,0.18,weatherlink.com 1.10,2013-08-07 01:42:00,
2013-08-06 20:57:00,74.5,72.0,29.82,SSE,147,0.0,1.0,92,0.00,,,0.18,weatherlink.com 1.10,2013-08-07 01:57:00,
2013-08-06 21:12:00,74.2,72.0,29.82,SSE,153,0.0,2.0,93,0.00,,,0.18,weatherlink.com 1.10,2013-08-07 02:12:00,
2013-08-06 21:27:00,74.1,72.0,29.82,SSE,153,0.0,2.0,93,0.00,,,0.18,weatherlink.com 1.10,2013-08-07 02:27:00,
2013-08-06 21:42:00,74.1,72.0,29.82,SSE,153,0.0,2.0,93,0.00,,,0.18,weatherlink.com 1.10,2013-08-07 02:42:00,
2013-08-06 21:57:00,74.1,72.0,29.82,SSE,148,0.0,3.0,93,0.00,,,0.18,weatherlink.com 1.10,2013-08-07 02:57:00,
2013-08-06 22:12:00,74.1,72.0,29.82,ESE,119,1.0,3.0,94,0.00,,,0.18,weatherlink.com 1.10,2013-08-07 03:12:00,
2013-08-06 22:27:00,74.1,72.0,29.82,ESE,119,0.0,2.0,94,0.00,,,0.18,weatherlink.com 1.10,2013-08-07 03:27:00,
2013-08-06 22:42:00,74.1,72.0,29.81,SE,129,1.0,3.0,94,0.00,,,0.18,weatherlink.com 1.10,2013-08-07 03:42:00,
2013-08-06 22:57:00,74.1,72.0,29.81,SE,146,0.0,3.0,94,0.00,,,0.18,weatherlink.com 1.10,2013-08-07 03:57:00,
2013-08-06 23:12:00,74.0,72.0,29.81,SSE,148,0.0,2.0,94,0.00,,,0.18,weatherlink.com 1.10,2013-08-07 04:12:00,
2013-08-06 23:27:00,74.0,72.0,29.81,SE,146,0.0,3.0,94,0.00,,,0.18,weatherlink.com 1.10,2013-08-07 04:27:00,
2013-08-06 23:42:00,73.9,72.0,29.81,SE,126,2.0,3.0,94,0.00,,,0.18,weatherlink.com 1.10,2013-08-07 04:42:00,
2013-08-06 23:56:00,73.7,72.0,29.81,SE,126,2.0,3.0,94,0.00,,,0.18,weatherlink.com 1.10,2013-08-07 04:56:00,